Home > Time Zones > World Clock > Weather > Peru > Callao > Past weeks

Flag for Peru Weather past 2 weeks in Callao, Callao, Peru

Now
64 °F

Passing clouds.


Feels Like: 64 °F
Forecast: 68 / 77 °F
Wind: 6 mph from South

Location: Lima-Callao / Aerop. Internacional Jorgechavez

Current Time: May 5, 2015 at 3:16:03 AM

Latest Report: May 5, 2015 at 3:00 AM


Visibility: 5 mi

Pressure: 29.89 "Hg

Humidity: 94%

Dew point: 63 °F

Location of CallaoLocation

Historic Weather in Callao — Graph

°F

Callao temperature yesterday

Maximum temperature yesterday: 77 °F (at 2:00 PM)
Minimum temperature yesterday: 68 °F (at 12:00 AM)
Average temperature yesterday: 71 °F

Past Weeks' High & Low Weather Summary

 TemperatureHumidityPressure
High79 °F (Apr 30, 12:00 PM)94% (Apr 20, 2:00 AM)29.98 "Hg (Apr 20, 2:00 AM)
Low64 °F (Apr 25, 5:00 AM)61% (May 1, 2:00 PM)29.77 "Hg (Apr 27, 3:00 PM)
Average71 °F83%29.88 "Hg
* Reported Apr 20 2:00 AM — May 5 2:00 AM, Callao, Weather by CustomWeather, © 2015

Note: Actual official high and low records may vary slightly from our data, if they occured in-between our weather recording intervals... More about our weather records

Advertising

Callao weather history for previous 24 hours

 ConditionsComfort  
Time TempWeatherWind HumidityBarometerVisibility
2:00 AM
Tue, May 5
64 °FClear.5 mph94%29.89 "Hg4 mi
1:00 AM66 °FClear.6 mph88%29.92 "Hg5 mi
12:00 AM66 °FClear.6 mph94%29.92 "Hg10 mi
11:00 PM
Mon, May 4
68 °FClear.7 mph88%29.95 "Hg10 mi
10:00 PM68 °FClear.9 mph88%29.92 "Hg10 mi
9:00 PM68 °FClear.13 mph88%29.92 "Hg10 mi
8:00 PM70 °FClear.12 mph83%29.89 "Hg10 mi
7:00 PM70 °FClear.13 mph83%29.89 "Hg10 mi
6:00 PM72 °FClear.16 mph73%29.89 "Hg10 mi
5:00 PM73 °FSunny.16 mph74%29.89 "Hg10 mi
4:00 PM73 °FSunny.18 mph74%29.86 "Hg10 mi
3:00 PM75 °FSunny.16 mph69%29.89 "Hg10 mi
2:00 PM77 °FPassing clouds.15 mph65%29.89 "HgN/A
1:00 PM75 °FOvercast.16 mph69%29.92 "HgN/A
12:00 PM73 °FOvercast.15 mph69%29.95 "HgN/A
11:00 AM73 °FOvercast.12 mph74%29.98 "HgN/A
10:00 AM73 °FOvercast.8 mph74%29.98 "HgN/A
9:00 AM72 °FOvercast.8 mph73%29.98 "HgN/A
8:00 AM72 °FPartly sunny.8 mph78%29.95 "HgN/A
7:00 AM72 °FPartly sunny.7 mph73%29.92 "HgN/A
6:00 AM72 °FOvercast.8 mph78%29.92 "HgN/A
5:00 AM70 °FPassing clouds.7 mph83%29.89 "HgN/A
4:00 AM68 °FPassing clouds.1 mph88%29.89 "HgN/A
3:00 AM68 °FOvercast.3 mph88%29.89 "HgN/A
Weather by CustomWeather, © 2015

See weather overviewHow to use our weather pages